Total_Precipitation_Accumulation
0.35 0.61 0.93 1.12 1.48 0.93 0.35 0.23 0.16 0.14 0.12 0.07 0.04 0.04 0.09 0.19 0.38 0.80 0.70 0.41 0.28 0.25 0.31 0.38 0.53 0.55 0.48 0.44 0.52 0.62 0.72 0.85 0.86 0.78 0.66 0.47 0.41 0.31 0.30 0.29 0.30 0.30 0.25 0.29 0.32 0.37 0.36 0.32 0.28
0.51 1.01 1.30 1.75 1.51 0.56 0.34 0.24 0.21 0.15 0.11 0.09 0.04 0.02 0.05 0.09 0.16 0.43 0.65 0.56 0.27 0.19 0.23 0.32 0.47 0.56 0.54 0.57 0.69 0.75 0.80 0.84 0.79 0.69 0.55 0.45 0.41 0.38 0.36 0.40 0.39 0.33 0.29 0.31 0.34 0.43 0.39 0.30 0.27
0.60 1.16 1.46 1.62 0.83 0.39 0.36 0.27 0.22 0.14 0.09 0.07 0.04 0.02 0.05 0.15 0.24 0.47 0.62 0.43 0.26 0.21 0.25 0.36 0.51 0.58 0.60 0.64 0.73 0.82 0.82 0.78 0.72 0.66 0.55 0.49 0.44 0.41 0.41 0.44 0.44 0.39 0.30 0.27 0.32 0.36 0.32 0.29 0.21
0.78 1.30 1.51 1.06 0.54 0.31 0.26 0.25 0.18 0.13 0.07 0.03 0.03 0.05 0.10 0.18 0.30 0.46 0.47 0.37 0.32 0.32 0.35 0.38 0.54 0.58 0.57 0.69 0.75 0.78 0.70 0.65 0.68 0.67 0.58 0.53 0.45 0.43 0.47 0.45 0.40 0.33 0.28 0.26 0.30 0.33 0.31 0.27 0.18
0.87 1.42 1.43 0.82 0.51 0.34 0.26 0.17 0.11 0.10 0.08 0.05 0.04 0.10 0.21 0.26 0.31 0.37 0.38 0.36 0.39 0.47 0.53 0.47 0.58 0.56 0.54 0.66 0.76 0.77 0.79 0.76 0.77 0.76 0.69 0.64 0.53 0.49 0.51 0.45 0.35 0.28 0.27 0.31 0.41 0.42 0.29 0.25 0.20
1.17 1.50 1.66 1.00 0.63 0.40 0.29 0.19 0.11 0.10 0.08 0.06 0.08 0.16 0.25 0.31 0.35 0.43 0.43 0.48 0.51 0.51 0.51 0.51 0.64 0.61 0.60 0.68 0.72 0.68 0.74 0.85 0.89 0.81 0.79 0.95 0.74 0.59 0.50 0.44 0.37 0.32 0.30 0.32 0.39 0.40 0.29 0.25 0.27
1.24 1.57 1.39 0.85 0.61 0.59 0.37 0.19 0.13 0.13 0.13 0.13 0.11 0.23 0.30 0.38 0.32 0.34 0.40 0.45 0.46 0.45 0.47 0.48 0.55 0.62 0.64 0.73 0.81 0.81 0.84 0.93 0.98 0.84 0.85 0.92 0.67 0.48 0.42 0.41 0.40 0.38 0.36 0.37 0.36 0.35 0.32 0.31 0.33
0.69 0.96 1.00 0.81 0.63 0.58 0.33 0.15 0.10 0.10 0.11 0.11 0.12 0.21 0.40 0.43 0.34 0.39 0.43 0.47 0.49 0.51 0.52 0.48 0.53 0.65 0.78 0.80 0.80 0.89 0.96 0.95 1.00 0.89 0.86 0.81 0.56 0.41 0.40 0.36 0.35 0.38 0.41 0.44 0.44 0.42 0.36 0.33 0.32
0.70 0.83 1.04 0.99 0.65 0.47 0.30 0.21 0.13 0.10 0.10 0.11 0.10 0.12 0.22 0.29 0.33 0.44 0.51 0.51 0.56 0.57 0.59 0.55 0.49 0.52 0.67 0.80 0.74 0.95 1.06 1.03 0.95 0.92 0.92 0.81 0.53 0.43 0.42 0.38 0.44 0.46 0.52 0.55 0.55 0.50 0.41 0.33 0.26
0.72 0.92 1.04 0.76 0.50 0.34 0.26 0.19 0.16 0.15 0.16 0.14 0.11 0.13 0.17 0.25 0.34 0.42 0.45 0.50 0.53 0.54 0.49 0.50 0.48 0.47 0.49 0.57 0.84 1.19 1.05 0.96 0.80 0.83 0.80 0.80 0.72 0.64 0.47 0.47 0.60 0.64 0.64 0.65 0.61 0.56 0.43 0.28 0.19
0.65 0.63 0.62 0.60 0.36 0.23 0.17 0.16 0.15 0.13 0.17 0.16 0.15 0.15 0.18 0.24 0.30 0.31 0.35 0.40 0.45 0.48 0.47 0.44 0.42 0.41 0.45 0.59 0.72 0.94 1.02 1.00 0.87 0.76 0.76 0.83 0.78 0.65 0.52 0.46 0.52 0.60 0.65 0.59 0.57 0.52 0.35 0.26 0.23
0.56 0.43 0.38 0.34 0.22 0.20 0.19 0.16 0.14 0.13 0.14 0.12 0.13 0.16 0.22 0.27 0.28 0.27 0.32 0.39 0.44 0.47 0.51 0.51 0.43 0.42 0.46 0.50 0.51 0.59 0.67 0.72 0.71 0.64 0.65 0.77 0.73 0.66 0.62 0.60 0.57 0.58 0.59 0.64 0.62 0.55 0.43 0.35 0.30
0.45 0.38 0.32 0.24 0.21 0.21 0.19 0.17 0.13 0.13 0.13 0.12 0.15 0.21 0.27 0.30 0.29 0.30 0.31 0.34 0.39 0.43 0.49 0.50 0.47 0.43 0.43 0.44 0.44 0.44 0.54 0.59 0.61 0.65 0.62 0.65 0.68 0.66 0.64 0.60 0.65 0.67 0.65 0.67 0.65 0.55 0.48 0.45 0.37
0.37 0.33 0.30 0.24 0.23 0.25 0.21 0.16 0.14 0.16 0.15 0.12 0.14 0.19 0.21 0.27 0.31 0.32 0.33 0.34 0.34 0.37 0.45 0.47 0.48 0.49 0.47 0.45 0.45 0.47 0.54 0.59 0.59 0.53 0.52 0.58 0.59 0.60 0.68 0.72 0.73 0.74 0.75 0.81 0.79 0.60 0.56 0.55 0.47
0.30 0.30 0.29 0.26 0.22 0.26 0.23 0.19 0.17 0.20 0.17 0.14 0.14 0.14 0.16 0.20 0.24 0.29 0.34 0.34 0.35 0.39 0.44 0.47 0.49 0.55 0.55 0.53 0.55 0.51 0.58 0.60 0.59 0.61 0.61 0.65 0.66 0.68 0.76 0.83 0.84 0.83 0.80 0.83 1.06 0.93 0.66 0.59 0.54
0.36 0.38 0.42 0.28 0.27 0.33 0.32 0.23 0.18 0.22 0.19 0.19 0.18 0.17 0.16 0.18 0.21 0.22 0.26 0.32 0.34 0.42 0.50 0.57 0.51 0.55 0.61 0.62 0.67 0.68 0.70 0.72 0.69 0.69 0.72 0.73 0.77 0.79 0.86 0.90 0.82 0.88 0.94 0.97 1.12 1.18 0.85 0.65 0.63
0.39 0.42 0.39 0.30 0.25 0.29 0.31 0.23 0.19 0.22 0.19 0.18 0.18 0.18 0.16 0.16 0.18 0.17 0.17 0.22 0.29 0.41 0.53 0.61 0.58 0.60 0.70 0.78 0.86 0.87 0.85 0.86 0.84 0.85 0.81 0.84 0.87 0.94 0.99 0.98 0.95 0.96 0.97 1.05 1.06 1.24 1.17 0.93 0.77
0.46 0.35 0.26 0.22 0.23 0.24 0.26 0.20 0.18 0.20 0.18 0.17 0.15 0.15 0.13 0.13 0.16 0.16 0.13 0.14 0.20 0.33 0.45 0.60 0.73 0.86 0.94 1.01 1.08 1.13 1.07 1.01 1.05 1.09 1.07 1.08 1.12 1.09 1.13 1.14 1.17 1.25 1.21 1.17 1.09 1.24 1.32 1.10 1.01
0.37 0.30 0.24 0.17 0.16 0.13 0.12 0.12 0.14 0.17 0.18 0.16 0.14 0.13 0.12 0.11 0.11 0.10 0.09 0.14 0.20 0.29 0.38 0.54 0.89 1.32 1.51 1.42 1.39 1.48 1.60 1.60 1.52 1.50 1.48 1.54 1.53 1.52 1.55 1.50 1.47 1.42 1.35 1.39 1.37 1.56 1.86 1.41 1.21
0.35 0.35 0.29 0.21 0.14 0.10 0.08 0.08 0.09 0.11 0.13 0.14 0.13 0.14 0.14 0.11 0.08 0.06 0.08 0.12 0.17 0.32 0.47 0.59 0.85 1.29 1.51 1.62 1.73 1.95 2.16 2.08 1.97 1.96 1.92 1.99 2.00 2.14 2.12 2.09 2.03 1.90 1.86 1.85 1.76 1.79 2.03 1.70 1.48
0.34 0.35 0.29 0.23 0.14 0.11 0.08 0.06 0.08 0.10 0.09 0.10 0.11 0.14 0.14 0.12 0.11 0.11 0.10 0.14 0.18 0.27 0.39 0.53 0.71 1.00 1.32 1.59 1.88 2.20 2.44 2.44 2.34 2.18 2.15 2.22 2.27 2.41 2.54 2.52 2.54 2.34 2.17 2.14 2.07 2.00 2.07 2.11 1.87
0.26 0.19 0.14 0.12 0.12 0.10 0.08 0.11 0.10 0.13 0.13 0.12 0.13 0.13 0.15 0.15 0.14 0.16 0.16 0.16 0.18 0.23 0.30 0.43 0.61 0.87 1.11 1.36 1.79 2.24 2.56 2.68 2.61 2.50 2.45 2.42 2.43 2.47 2.66 2.69 2.77 2.61 2.46 2.38 2.30 2.10 2.14 2.38 2.26
0.15 0.11 0.09 0.09 0.09 0.08 0.06 0.09 0.12 0.13 0.16 0.16 0.16 0.16 0.16 0.16 0.17 0.20 0.20 0.22 0.24 0.22 0.26 0.38 0.54 0.78 1.02 1.25 1.62 2.05 2.35 2.59 2.76 2.59 2.45 2.47 2.49 2.50 2.62 2.76 2.84 2.70 2.57 2.50 2.60 2.44 2.35 2.23 2.14
0.11 0.11 0.08 0.07 0.08 0.07 0.05 0.11 0.19 0.18 0.17 0.15 0.14 0.15 0.17 0.19 0.24 0.27 0.35 0.39 0.39 0.33 0.36 0.45 0.54 0.68 0.84 0.99 1.23 1.48 1.83 2.13 2.49 2.49 2.41 2.53 2.50 2.38 2.31 2.49 2.69 2.63 2.62 2.63 2.69 2.70 2.62 2.55 2.50
0.08 0.12 0.14 0.13 0.14 0.11 0.08 0.18 0.29 0.25 0.19 0.18 0.18 0.18 0.20 0.22 0.26 0.34 0.47 0.51 0.53 0.46 0.43 0.45 0.55 0.61 0.67 0.78 0.91 1.07 1.34 1.55 1.93 2.25 2.23 2.15 2.19 2.22 2.24 2.28 2.29 2.28 2.38 2.55 2.78 2.72 2.56 2.53 2.58
0.07 0.11 0.18 0.20 0.19 0.19 0.19 0.34 0.42 0.31 0.23 0.21 0.19 0.20 0.23 0.27 0.34 0.50 0.65 0.68 0.68 0.60 0.53 0.52 0.60 0.63 0.65 0.70 0.73 0.83 0.99 1.12 1.30 1.54 1.66 1.69 1.75 1.96 2.05 2.15 2.13 2.12 2.18 2.29 2.42 2.45 2.41 2.36 2.32
0.09 0.12 0.14 0.20 0.18 0.20 0.30 0.46 0.43 0.27 0.25 0.27 0.27 0.28 0.37 0.47 0.55 0.67 0.81 0.83 0.75 0.69 0.61 0.60 0.64 0.73 0.73 0.72 0.74 0.83 0.89 0.93 1.05 1.09 1.24 1.43 1.47 1.53 1.64 1.73 1.83 1.94 2.01 2.07 2.21 2.28 2.26 2.25 2.22
0.07 0.11 0.18 0.28 0.33 0.31 0.33 0.45 0.47 0.37 0.37 0.37 0.42 0.44 0.55 0.66 0.74 0.82 0.95 0.97 0.83 0.71 0.61 0.59 0.61 0.73 0.92 1.04 0.99 0.93 1.00 1.07 1.30 1.33 1.18 1.17 1.36 1.42 1.44 1.48 1.56 1.74 1.87 1.95 2.00 2.06 2.15 2.13 2.14
0.15 0.21 0.27 0.35 0.38 0.49 0.58 0.63 0.58 0.57 0.58 0.59 0.62 0.65 0.74 0.86 0.87 0.84 0.91 0.98 0.87 0.68 0.61 0.56 0.56 0.67 0.83 0.87 0.93 0.92 0.97 1.07 1.35 1.57 1.50 1.32 1.32 1.36 1.32 1.24 1.32 1.47 1.61 1.72 1.82 1.87 1.87 1.88 1.99
0.24 0.34 0.50 0.69 0.66 0.62 0.75 0.79 0.64 0.58 0.62 0.64 0.64 0.63 0.67 0.79 0.80 0.81 0.83 0.80 0.70 0.56 0.49 0.47 0.48 0.59 0.71 0.70 0.77 0.84 0.85 0.94 1.07 1.19 1.21 1.14 1.06 1.03 1.08 1.12 1.13 1.22 1.38 1.49 1.53 1.56 1.61 1.65 1.73